Location: Daytona Beach
(29.2106°N, 81.0231°W)
Time: 21:55:48
(UTC-04:00)

RS-15 - Pass Details

Date: 04 October 2021
Orbit: 1884 x 2160 km, 64.8° (Epoch: 22 October)

Event Time Altitude Azimuth Distance (km) Brightness Sun altitude
Rises 00:43:42 0° 332° (NNW) 5,657 10.8 -64.3°
Reaches altitude 10° 00:47:07 10° 332° (NNW) 4,666 10.2 -64.5°
Enters shadow 00:50:31 23° 331° (NNW) 3,718 9.6 -64.7°
